Location: Canyam�s
(41.5996°N, 2.4450°E)
Time: 04:25:06
(UTC+00:00)

Hubble Space Telescope - Pass Details

Date: 16 August 2020
Orbit: 536 x 540 km, 28.5° (Epoch: 22 September)

Event Time Altitude Azimuth Distance (km) Brightness Sun altitude
Exits shadow 03:12:47 12° 161° (SSE) 1,671 3.1 -18.4°
Drops below altitude 10° 03:13:29 10° 152° (SSE) 1,779 3.3 -18.3°
Sets 03:16:47 0° 124° (SE) 2,670 4.6 -17.8°
